CW4378 Weather Reports


Display with metric or nautical units.
time (UTC)temp
F
wind
direction
speed
MPH
gust
MPH
rain 1hr
in
rain 24hr
in
rain mn
in
humidity
%
barometer
mb
20200125054108 35 44 0.0 1.0 0.00 0.00 0.00 88 1019.4
20200125053108 35 44 0.0 0.0 0.00 0.00 0.00 88 1019.5
20200125052107 35 44 0.0 1.0 0.00 0.00 0.00 89 1019.4
20200125051111 35 44 0.0 1.0 0.00 0.00 0.00 88 1019.2
20200125050108 36 44 0.0 0.0 0.00 0.00 0.00 88 1019.2
20200125045107 36 44 0.0 0.0 0.00 0.00 0.00 88 1019.2
20200125044107 36 44 0.0 0.0 0.00 0.00 0.00 88 1019.2
20200125043107 36 44 0.0 0.0 0.00 0.00 0.00 88 1019.1
20200125042107 36 44 0.0 0.0 0.00 0.00 0.00 88 1019.0
20200125041107 36 44 0.0 0.0 0.00 0.00 0.00 87 1018.9
20200125040107 37 44 0.0 0.0 0.00 0.00 0.00 86 1019.0
20200125035107 37 44 0.0 0.0 0.00 0.00 0.00 87 1018.9
20200125034107 37 44 0.0 0.0 0.00 0.00 0.00 86 1018.8
20200125033107 37 44 0.0 0.0 0.00 0.00 0.00 86 1018.7
20200125032107 37 44 0.0 0.0 0.00 0.00 0.00 86 1018.6
20200125031107 37 44 0.0 2.0 0.00 0.00 0.00 86 1018.5
20200125030106 38 44 0.0 0.0 0.00 0.00 0.00 86 1018.4
20200125025106 38 44 0.0 0.0 0.00 0.00 0.00 86 1018.3
20200125024106 38 44 0.0 0.0 0.00 0.00 0.00 85 1018.2
20200125023106 38 44 0.0 0.0 0.00 0.00 0.00 85 1018.2
20200125022106 39 44 0.0 0.0 0.00 0.00 0.00 85 1018.2
20200125021106 39 44 0.0 0.0 0.00 0.00 0.00 84 1018.1
20200125020106 39 44 0.0 0.0 0.00 0.00 0.00 83 1018.0
20200125015106 40 44 0.0 0.0 0.00 0.00 0.00 82 1017.8
20200125014106 40 44 0.0 0.0 0.00 0.00 0.00 82 1017.8
20200125013105 40 44 0.0 0.0 0.00 0.00 0.00 81 1017.8
20200125012105 41 44 0.0 0.0 0.00 0.00 0.00 80 1017.9
20200125011105 41 44 0.0 0.0 0.00 0.00 0.00 80 1017.8
20200125010106 41 44 0.0 0.0 0.00 0.00 0.00 80 1017.8
20200125005105 42 44 0.0 0.0 0.00 0.00 0.00 78 1017.6
20200125004105 43 44 0.0 0.0 0.00 0.00 0.00 78 1017.8
20200125003105 43 44 0.0 0.0 0.00 0.00 0.00 76 1017.7
20200125002105 44 44 0.0 0.0 0.00 0.00 0.00 73 1017.5
20200125001105 45 44 0.0 1.0 0.00 0.00 0.00 72 1017.5
20200125000105 46 44 0.0 1.0 0.00 0.00 0.00 70 1017.4
20200124235104 47 44 0.0 2.0 0.00 0.00 0.00 68 1017.5
20200124234105 47 44 0.0 2.0 0.00 0.00 0.00 67 1017.4
20200124233104 48 44 0.0 2.0 0.00 0.00 0.00 66 1017.3
20200124232104 49 44 2.0 4.0 0.00 0.00 0.00 64 1017.4
20200124231104 50 25 3.0 5.0 0.00 0.00 0.00 62 1017.2
20200124230104 50 355 3.0 5.0 0.00 0.00 0.00 59 1017.2
20200124225105 51 305 1.0 11.0 0.00 0.00 0.00 59 1017.1
20200124224104 51 317 2.0 7.0 0.00 0.00 0.00 58 1017.1
20200124223104 52 291 1.0 9.0 0.00 0.00 0.00 57 1017.2
20200124222104 52 339 0.0 10.0 0.00 0.00 0.00 56 1017.1
20200124221104 52 295 2.0 9.0 0.00 0.00 0.00 58 1017.2
20200124220104 52 320 4.0 9.0 0.00 0.00 0.00 57 1017.1
20200124215103 53 235 5.0 9.0 0.00 0.00 0.00 57 1017.0
20200124214103 52 33 1.0 9.0 0.00 0.00 0.00 57 1016.9
20200124213103 51 271 4.0 8.0 0.00 0.00 0.00 59 1017.0
20200124212103 51 18 2.0 8.0 0.00 0.00 0.00 58 1017.1
20200124211102 52 351 5.0 9.0 0.00 0.00 0.00 59 1017.1
20200124210102 51 348 1.0 7.0 0.00 0.00 0.00 60 1017.2
20200124205102 51 342 4.0 8.0 0.00 0.00 0.00 57 1017.1
20200124204103 51 342 2.0 10.0 0.00 0.00 0.00 59 1017.0
20200124203103 51 248 2.0 10.0 0.00 0.00 0.00 59 1016.9
20200124202104 51 5 10.0 12.0 0.00 0.00 0.00 59 1016.8
20200124201102 51 345 3.0 12.0 0.00 0.00 0.00 58 1016.8
20200124200102 51 223 3.0 11.0 0.00 0.00 0.00 61 1016.9
20200124195102 51 360 3.0 8.0 0.00 0.00 0.00 61 1016.9
20200124194102 51 28 2.0 14.0 0.00 0.00 0.00 61 1016.9
20200124193102 50 261 7.0 10.0 0.00 0.00 0.00 65 1017.1
20200124192101 50 340 3.0 9.0 0.00 0.00 0.00 64 1017.1
20200124191101 50 258 8.0 9.0 0.00 0.00 0.00 65 1017.3
20200124190101 49 328 2.0 8.0 0.00 0.00 0.00 67 1017.6
20200124185101 48 297 2.0 8.0 0.00 0.00 0.00 67 1017.7
20200124184101 49 277 7.0 9.0 0.00 0.00 0.00 68 1017.9
20200124183101 48 318 4.0 11.0 0.00 0.00 0.00 69 1018.0
20200124182101 46 202 3.0 7.0 0.00 0.00 0.00 72 1018.2
20200124181101 46 225 2.0 11.0 0.00 0.00 0.00 75 1018.4
20200124180101 46 329 2.0 8.0 0.00 0.00 0.00 74 1018.6
20200124175101 46 355 5.0 13.0 0.00 0.00 0.00 73 1018.8
20200124174101 45 276 3.0 10.0 0.00 0.00 0.00 74 1018.8
20200124173101 46 325 2.0 10.0 0.00 0.00 0.00 74 1019.0
20200124172101 45 323 1.0 8.0 0.00 0.00 0.00 76 1018.9
20200124171101 44 296 2.0 8.0 0.00 0.00 0.00 76 1019.0
20200124170101 45 37 0.0 9.0 0.00 0.00 0.00 77 1018.9
20200124165100 44 306 2.0 10.0 0.00 0.00 0.00 77 1018.9
20200124164100 44 351 3.0 8.0 0.00 0.00 0.00 77 1018.8
20200124163100 43 307 2.0 12.0 0.00 0.00 0.00 78 1018.7
20200124162100 43 14 3.0 12.0 0.00 0.00 0.00 79 1018.6
20200124161100 43 348 3.0 8.0 0.00 0.00 0.00 80 1018.5
20200124160100 43 323 6.0 16.0 0.00 0.00 0.00 81 1018.4
20200124155101 43 338 4.0 9.0 0.00 0.00 0.00 82 1018.3
20200124154100 42 271 2.0 9.0 0.00 0.00 0.00 83 1018.2
20200124153100 42 346 2.0 11.0 0.00 0.00 0.00 85 1018.1
20200124152059 41 329 10.0 13.0 0.00 0.00 0.00 85 1018.1
20200124151100 41 321 5.0 12.0 0.00 0.00 0.00 87 1018.0
20200124150059 40 259 0.0 7.0 0.00 0.00 0.00 89 1018.0
20200124145059 39 298 2.0 9.0 0.00 0.00 0.00 89 1017.8
20200124144059 39 279 2.0 8.0 0.00 0.00 0.00 90 1017.7
20200124143059 38 274 3.0 8.0 0.00 0.00 0.00 90 1017.4
20200124142059 38 248 3.0 7.0 0.00 0.00 0.00 90 1017.4
20200124141059 37 277 4.0 8.0 0.00 0.00 0.00 91 1017.2
20200124140059 37 257 7.0 9.0 0.00 0.00 0.00 91 1017.1
20200124135100 36 261 6.0 8.0 0.00 0.00 0.00 91 1017.0
20200124134059 36 288 0.0 5.0 0.00 0.00 0.00 91 1016.9
20200124133058 36 244 2.0 7.0 0.00 0.00 0.00 91 1016.7
20200124132058 36 296 2.0 7.0 0.00 0.00 0.00 91 1016.5
20200124131058 36 273 3.0 4.0 0.00 0.00 0.00 91 1016.4
20200124130057 36 264 3.0 4.0 0.00 0.00 0.00 90 1016.3
20200124125058 36 268 2.0 3.0 0.00 0.00 0.00 90 1016.2
20200124124058 36 292 0.0 4.0 0.00 0.00 0.00 90 1015.9
20200124123057 36 267 0.0 4.0 0.00 0.00 0.00 90 1015.7
20200124122057 36 300 0.0 3.0 0.00 0.01 0.00 89 1015.5
20200124121057 36 279 2.0 2.0 0.00 0.02 0.00 89 1015.5
20200124120057 37 271 0.0 2.0 0.00 0.03 0.00 88 1015.2
20200124115057 37 303 0.0 5.0 0.00 0.06 0.00 88 1015.2
20200124114057 38 267 0.0 6.0 0.00 0.07 0.00 88 1015.0
20200124113057 38 332 4.0 7.0 0.00 0.07 0.00 88 1015.0
20200124112057 38 270 0.0 4.0 0.00 0.07 0.00 87 1014.9
20200124111057 38 301 3.0 8.0 0.00 0.08 0.00 88 1014.8
20200124110057 38 288 3.0 9.0 0.00 0.08 0.00 88 1014.8
20200124105057 38 234 1.0 8.0 0.00 0.09 0.00 88 1014.8
20200124104056 38 272 1.0 8.0 0.00 0.10 0.00 88 1014.8
20200124103056 39 275 3.0 4.0 0.00 0.11 0.00 87 1014.7
20200124102057 39 360 0.0 6.0 0.00 0.11 0.00 86 1014.8
20200124101056 40 265 2.0 6.0 0.00 0.11 0.00 85 1014.7
20200124100056 40 263 2.0 8.0 0.00 0.11 0.00 86 1014.7
20200124095056 40 128 1.0 11.0 0.00 0.11 0.00 87 1014.6
20200124093056 40 285 4.0 9.0 0.00 0.11 0.00 90 1014.5
20200124092057 40 257 2.0 7.0 0.00 0.12 0.00 91 1014.4
20200124091055 40 248 2.0 9.0 0.00 0.12 0.00 91 1014.2
20200124090055 40 254 1.0 7.0 0.00 0.12 0.00 91 1014.3
20200124085055 40 238 2.0 6.0 0.00 0.12 0.00 91 1014.3
20200124084058 40 254 1.0 5.0 0.00 0.12 0.00 91 1014.2
20200124083055 40 254 1.0 6.0 0.00 0.12 0.00 91 1014.1
20200124082055 41 245 1.0 7.0 0.00 0.12 0.00 90 1014.2
20200124081055 41 246 2.0 4.0 0.00 0.12 0.00 90 1014.2
20200124080102 41 257 4.0 8.0 0.00 0.12 0.00 90 1014.2
20200124075055 41 261 3.0 8.0 0.00 0.12 0.00 90 1014.2
20200124074055 41 234 3.0 11.0 0.00 0.12 0.00 91 1014.2
20200124073054 41 274 2.0 9.0 0.00 0.12 0.00 92 1014.1
20200124072055 41 255 3.0 10.0 0.00 0.12 0.00 93 1014.2
20200124071054 41 250 3.0 7.0 0.00 0.12 0.00 94 1014.2
20200124070054 41 271 1.0 4.0 0.00 0.12 0.00 94 1014.3
20200124065054 40 285 4.0 8.0 0.00 0.12 0.00 94 1014.3
20200124064054 40 273 1.0 8.0 0.00 0.12 0.00 94 1014.1
20200124063054 41 265 1.0 8.0 0.00 0.12 0.00 95 1014.0
20200124062054 40 244 3.0 8.0 0.00 0.12 0.00 95 1014.0
20200124061054 40 218 1.0 5.0 0.00 0.12 0.00 95 1013.9
20200124060053 40 213 1.0 5.0 0.00 0.12 0.00 95 1014.1
20200124055054 40 227 3.0 5.0 0.00 0.12 0.12 95 1014.1